TimeMST,TemperatureF,Dew PointF,Humidity,Sea Level PressureIn,VisibilityMPH,Wind Direction,Wind SpeedMPH,Gust SpeedMPH,PrecipitationIn,Events,Conditions,WindDirDegrees,DateUTC
12:53 AM,26.1,23.0,88,30.03,10.0,ENE,5.8,-,N/A,,Clear,70,2013-03-03 07:53:00
1:53 AM,25.0,21.9,88,30.01,10.0,ENE,6.9,-,N/A,,Clear,70,2013-03-03 08:53:00
2:53 AM,26.1,23.0,88,29.96,10.0,Calm,Calm,-,N/A,,Clear,0,2013-03-03 09:53:00
3:53 AM,24.8,21.2,86,29.97,10.0,NW,4.6,-,N/A,,Partly Cloudy,310,2013-03-03 10:53:00
4:53 AM,23.0,19.9,88,29.94,10.0,East,3.5,-,N/A,,Partly Cloudy,80,2013-03-03 11:53:00
5:53 AM,26.1,23.0,88,29.94,10.0,North,3.5,-,N/A,,Overcast,10,2013-03-03 12:53:00
6:53 AM,26.1,23.0,88,29.94,10.0,East,5.8,-,N/A,,Overcast,90,2013-03-03 13:53:00
7:53 AM,30.0,26.1,85,29.92,10.0,Calm,Calm,-,N/A,,Mostly Cloudy,0,2013-03-03 14:53:00
8:53 AM,30.9,27.0,85,29.89,10.0,SE,4.6,-,N/A,,Partly Cloudy,130,2013-03-03 15:53:00
9:53 AM,37.0,30.0,76,29.87,10.0,SSW,3.5,-,N/A,,Clear,200,2013-03-03 16:53:00
10:53 AM,39.9,28.9,65,29.81,10.0,South,6.9,-,N/A,,Mostly Cloudy,190,2013-03-03 17:53:00
11:53 AM,41.0,27.0,57,29.81,10.0,WNW,12.7,-,N/A,,Scattered Clouds,290,2013-03-03 18:53:00
12:53 PM,43.0,28.9,58,29.76,10.0,WSW,16.1,-,N/A,,Mostly Cloudy,250,2013-03-03 19:53:00
1:53 PM,41.0,27.0,57,29.75,10.0,WNW,11.5,-,N/A,,Mostly Cloudy,300,2013-03-03 20:53:00
2:53 PM,41.0,28.0,60,29.74,10.0,West,10.4,19.6,N/A,,Mostly Cloudy,260,2013-03-03 21:53:00
3:53 PM,37.9,28.0,68,29.77,10.0,WSW,12.7,20.7,N/A,,Overcast,240,2013-03-03 22:53:00
4:53 PM,39.9,21.0,47,29.76,10.0,WNW,9.2,23.0,N/A,,Overcast,300,2013-03-03 23:53:00
5:53 PM,36.0,21.0,55,29.77,10.0,West,17.3,28.8,N/A,,Partly Cloudy,260,2013-03-04 00:53:00
6:02 PM,37.4,17.6,45,29.79,10.0,West,16.1,38.0,N/A,,Partly Cloudy,260,2013-03-04 01:02:00
6:53 PM,35.1,17.1,48,29.76,10.0,WNW,27.6,42.6,N/A,,Clear,290,2013-03-04 01:53:00
7:53 PM,34.0,18.0,52,29.78,10.0,NE,8.1,-,N/A,,Scattered Clouds,40,2013-03-04 02:53:00
8:53 PM,34.0,18.0,52,29.78,10.0,Calm,Calm,-,N/A,,Overcast,0,2013-03-04 03:53:00
9:53 PM,30.9,21.0,67,29.77,10.0,WNW,5.8,-,N/A,,Overcast,290,2013-03-04 04:53:00
10:53 PM,30.0,19.9,66,29.77,10.0,NNW,6.9,-,N/A,,Overcast,340,2013-03-04 05:53:00
11:53 PM,27.0,15.1,61,29.78,10.0,North,10.4,-,N/A,,Scattered Clouds,360,2013-03-04 06:53:00